Location: Poughquag
(41.6090°N, 73.6820°W)
Time: 03:40:04
(UTC-04:00)

S-56A Canister/Altair - Pass Details

Date: 06 June 2020
Orbit: 633 x 2499 km, 38.9° (Epoch: 06 July)

Event Time Altitude Azimuth Distance (km) Brightness Sun altitude
Rises 10:07:54 0° 276° (W) 4,185 10.9 50.7°
Reaches altitude 10° 10:11:03 10° 263° (W) 3,485 10.6 51.3°
Maximum altitude 10:18:02 25° 213° (SSW) 3,028 10.7 52.5°
Drops below altitude 10° 10:27:07 10° 166° (SSE) 4,633 11.9 54.1°
Sets 10:32:12 0° 155° (SSE) 5,881 12.4 55.0°
